Home   Weather   Warren   Past weeks

Flag for USA Past Weather in Warren, Michigan, USA — Yesterday and Last 2 Weeks

Now
71 °F

Overcast.


Feels Like: 76 °F
Forecast: 62 / 69 °F
Wind: 8 mph from East

Location: Detroit City Airport

Current Time: Jun 20, 2018 at 7:01:30 pm

Latest Report: Jun 20, 2018 at 5:53 pm


Visibility: 10 mi

Pressure: 29.84 "Hg

Humidity: 61%

Dew Point: 57 °F

Location of WarrenLocation

Past Weather in Warren — Graph

°F

Warren Temperature Yesterday

Maximum temperature yesterday: 75 °F (at 4:53 pm)
Minimum temperature yesterday: 66 °F (at 5:53 am)
Average temperature yesterday: 70 °F

High & Low Weather Summary for the Past Weeks

 TemperatureHumidityPressure
High95 °F (Jun 17, 1:53 pm)94% (Jun 10, 12:53 pm)30.19 "Hg (Jun 10, 12:53 pm)
Low48 °F (Jun 6, 5:53 am)26% (Jun 14, 1:53 pm)29.78 "Hg (Jun 13, 1:53 pm)
Average71 °F64%29.98 "Hg
* Reported Jun 5 5:53 pm — Jun 20 5:53 pm, Warren. Weather by CustomWeather, © 2018

Note: Actual official high and low records may vary slightly from our data, if they occured in-between our weather recording intervals... More about our weather records

Advertising

Warren Weather History for the Previous 24 Hours

Scroll right to see more
 ConditionsComfort  
Time TempWeatherWind HumidityBarometerVisibility
5:53 pm
Wed, Jun 20
71 °FOvercast.8 mph61%29.84 "Hg10 mi
4:53 pm70 °FPartly sunny.7 mph66%29.86 "Hg10 mi
3:53 pm69 °FOvercast.6 mph68%29.87 "Hg10 mi
2:53 pm67 °FOvercast.7 mph73%29.88 "Hg10 mi
1:53 pm65 °FOvercast.5 mph78%29.89 "Hg10 mi
12:53 pm64 °FOvercast.6 mph78%29.90 "Hg10 mi
11:53 am65 °FPartly sunny.6 mph81%29.89 "Hg10 mi
11:20 am63 °FMore clouds than sun.6 mph87%29.90 "Hg10 mi
10:53 am63 °FMostly cloudy.6 mph87%29.90 "Hg10 mi
9:53 am62 °FLight rain. Overcast.5 mph86%29.91 "Hg10 mi
9:35 am61 °FLight rain. More clouds than sun.8 mph90%29.91 "Hg10 mi
8:53 am60 °FLight rain. Mostly cloudy.7 mph90%29.90 "Hg9 mi
7:53 am58 °FLight rain. Fog.7 mph93%29.91 "Hg4 mi
7:34 am58 °FLight rain. Fog.6 mph90%29.93 "Hg3 mi
7:09 am59 °FRain. Mostly cloudy.6 mph84%29.94 "Hg4 mi
6:53 am60 °FLight rain. Mostly cloudy.5 mph78%29.93 "Hg3 mi
5:53 am64 °FLight rain. Overcast.5 mph63%29.91 "Hg10 mi
4:53 am65 °FOvercast.6 mph56%29.90 "Hg10 mi
3:53 am66 °FOvercast.5 mph50%29.90 "Hg10 mi
2:53 am66 °FOvercast.6 mph52%29.91 "Hg10 mi
1:53 am66 °FMostly cloudy.9 mph50%29.93 "Hg10 mi
12:53 am66 °FMostly cloudy.9 mph52%29.93 "Hg10 mi
11:53 pm
Tue, Jun 19
66 °FOvercast.8 mph61%29.94 "Hg10 mi
10:53 pm67 °FClear.7 mph71%29.95 "Hg10 mi
9:53 pm69 °FPassing clouds.10 mph70%29.95 "Hg10 mi
8:53 pm73 °FMostly cloudy.5 mph62%29.95 "Hg10 mi
7:53 pm73 °FPartly sunny.3 mph62%29.95 "Hg10 mi
Weather by CustomWeather, © 2018

See weather overview